This is the latest recevied weather packets stored in our database for station/object JA6YCL-13. If no packets are shown the sender has not sent any weather packets the latest 10 day(s).
| Time | Temp. | Humidity | Pressure | Rain* | Wind** | Luminosity | Snow |
|---|---|---|---|---|---|---|---|
| 1777846936 | 16.67° C | 61% | 1009.8 hPa | 0 mm | - | - | - |
| 1777846036 | 16.11° C | 64% | 1009.5 hPa | 0 mm | - | - | - |
| 1777845276 | 16.67° C | 64% | 1009.3 hPa | 0 mm | - | - | - |
| 1777844406 | 16.11° C | 67% | 1009.2 hPa | 0 mm | - | - | - |
| 1777843570 | 15.56° C | 68% | 1009 hPa | 0 mm | - | - | - |
| 1777842756 | 15° C | 69% | 1008.8 hPa | 0 mm | - | - | - |
| 1777841897 | 15° C | 70% | 1008.5 hPa | 0 mm | - | - | - |
| 1777841179 | 15° C | 71% | 1008.4 hPa | 0 mm | - | - | - |
| 1777840316 | 15° C | 72% | 1008 hPa | 0 mm | - | - | - |
| 1777839511 | 15° C | 71% | 1008.1 hPa | 0 mm | - | - | - |
| 1777838747 | 15° C | 72% | 1008.1 hPa | 0 mm | - | - | - |
| 1777837926 | 15.56° C | 72% | 1007.6 hPa | 0 mm | - | - | - |
| 1777837061 | 15.56° C | 71% | 1007.3 hPa | 0 mm | - | - | - |
| 1777836336 | 15.56° C | 71% | 1007.7 hPa | 0 mm | - | - | - |
| 1777835606 | 15.56° C | 70% | 1007.4 hPa | 0 mm | - | - | - |
| 1777834802 | 15.56° C | 70% | 1007.4 hPa | 0 mm | - | - | - |
| 1777833966 | 15.56° C | 70% | 1007.5 hPa | 0 mm | - | - | - |
| 1777833066 | 15.56° C | 70% | 1007.4 hPa | 0 mm | - | - | - |
| 1777832246 | 15.56° C | 71% | 1007.3 hPa | 0 mm | - | - | - |
| 1777831413 | 15.56° C | 71% | 1007.1 hPa | 0 mm | - | - | - |
| 1777830641 | 15.56° C | 72% | 1007.1 hPa | 0 mm | - | - | - |
| 1777829871 | 15.56° C | 73% | 1007.2 hPa | 0 mm | - | - | - |
| 1777829069 | 15.56° C | 73% | 1007 hPa | 0 mm | - | - | - |
| 1777828300 | 15.56° C | 74% | 1007 hPa | 0 mm | - | - | - |
| 1777827542 | 15.56° C | 73% | 1006.8 hPa | 0 mm | - | - | - |
* Rain latest hour (hover to see other rain measurements)
** Current wind speed in m/s (hover to see current wind gust speed)